Kansas Department of Transportation
RWIS(Road and Runway Information System) Map and Weather Data





Station
Surface
Air
Wind
Site IDSensor TypeLocationTemperature (°F)Temperature (°F)Humidity (%)Speed (mi/h)Gusts (mi/h)DirectionTime
123002AtmosphericBonner Springs 7361514EMay 8 2021 2:05PM
123002ApproachBonner Springs108     May 8 2021 2:05PM
123002DeckBonner Springs104     May 8 2021 2:05PM
123014AtmosphericBull Creek 7365915SMay 8 2021 2:05PM
123014DeckBull Creek109     May 8 2021 2:05PM
123014DepartureBull Creek106     May 8 2021 2:05PM
123015AtmosphericLeavenworth 7265816SEMay 8 2021 2:05PM
123015DeckLeavenworth99     May 8 2021 2:05PM
123015DepartureLeavenworth93     May 8 2021 2:05PM
123020AtmosphericMayetta      May 8 2021 9:30AM
505000AtmosphericKTA 1 84900NEMay 8 2021 2:00PM
505000ApproachKTA 1109     May 8 2021 2:00PM
505000DeckKTA 1115     May 8 2021 2:00PM
505002AtmosphericKTA 3 845829EMay 8 2021 2:02PM
505002ApproachKTA 3115     May 8 2021 1:52PM
505002DeckKTA 3111     May 8 2021 1:52PM
505003AtmosphericKTA 4 81411622NMay 8 2021 2:02PM
505003ApproachKTA 4Unavailable     May 8 2021 1:52PM
505003DeckKTA 4Unavailable     May 8 2021 1:52PM
505004AtmosphericKTA 5 81991520SSEMay 8 2021 2:02PM
505004RoadwayKTA 5109     May 8 2021 1:52PM
505004RoadwayKTA 5109     May 8 2021 1:52PM
505005AtmosphericKTA 6 7949714ESEMay 8 2021 2:02PM
505005Approach KTA 6113     May 8 2021 1:52PM
505005DeckKTA 6111     May 8 2021 1:52PM
505006AtmosphericKTA 7 7765712SEMay 8 2021 2:02PM
505006ApproachKTA 7113     May 8 2021 1:52PM
505006DeckKTA 7100     May 8 2021 1:52PM
505007AtmosphericKTA 8 7758411SSEMay 8 2021 2:02PM
505007ApproachKTA 8108     May 8 2021 1:52PM
505007DeckKTA 8102     May 8 2021 1:52PM
505008AtmosphericKTA 9 7953411SMay 8 2021 2:02PM
505008ApproachKTA 9115     May 8 2021 1:52PM
505008DeckKTA 9104     May 8 2021 1:52PM
505010AtmosphericWebb 8441616SEMay 8 2021 2:05PM
505010DeckWebb108     May 8 2021 2:05PM
505010NullWebb111     May 8 2021 2:05PM
505014AtmosphericI-135 82441219SSWMay 8 2021 2:05PM
505014ApproachI-135108     May 8 2021 2:05PM
505014DeckI-135115     May 8 2021 2:05PM
540000AtmosphericBlue Rapids 8149311SSEMay 8 2021 2:05PM
540000DeckBlue Rapids104     May 8 2021 2:05PM
540000DepartureBlue RapidsUnavailable     May 8 2021 2:05PM
540001AtmosphericSabetha 70641015SEMay 8 2021 2:05PM
540001ApproachSabethaUnavailable     May 8 2021 2:05PM
540001DeckSabethaUnavailable     May 8 2021 2:05PM
540002AtmosphericWestgate 7944614SEMay 8 2021 2:05PM
540002DeckWestgate108     May 8 2021 2:05PM
540002DepartureWestgateUnavailable     May 8 2021 2:05PM
540003AtmosphericEmporia 7957414SSEMay 8 2021 2:05PM
540003ApproachEmporia109     May 8 2021 2:05PM
540003DeckEmporia109     May 8 2021 2:05PM
540005AtmosphericLawrence 7754614EMay 8 2021 2:05PM
540005ApproachLawrence104     May 8 2021 2:05PM
540005DeckLawrence111     May 8 2021 2:05PM
540007AtmosphericManhattan 814969ESEMay 8 2021 2:05PM
540007DepartureManhattan115     May 8 2021 2:05PM
540007DeckManhattan115     May 8 2021 2:05PM
541000AtmosphericElkhart 9051622SSWMay 8 2021 2:05PM
541000ApproachElkhart122     May 8 2021 2:05PM
541000DeckElkhart118     May 8 2021 2:05PM
541003AtmosphericFord 8239916SMay 8 2021 2:05PM
541003DeckFordUnavailable     May 8 2021 2:05PM
541003DepartureFord104     May 8 2021 2:05PM
541004AtmosphericScott 88171217SSWMay 8 2021 2:05PM
541004DepartureScott117     May 8 2021 2:05PM
541005AtmosphericNess 82441016SSWMay 8 2021 2:05PM
541005DeckNess109     May 8 2021 2:05PM
541005DepartureNess113     May 8 2021 2:05PM
541007AtmosphericGarden City 8825610SWMay 8 2021 2:05PM
541007ApproachGarden City      May 8 2021 2:05PM
541007DeckGarden City117     May 8 2021 2:05PM
543000AtmosphericJunction City 8236412NNEMay 8 2021 2:05PM
543000ApproachJunction City122     May 8 2021 2:05PM
543000DeckJunction CityUnavailable     May 8 2021 2:05PM
543001AtmosphericEllsworth 82461319SMay 8 2021 2:05PM
543001RoadwayEllsworth113     May 8 2021 2:05PM
543002AtmosphericMcPherson 82421924SMay 8 2021 2:05PM
543002ApproachMcPherson106     May 8 2021 2:05PM
543002DeckMcPherson86     May 8 2021 2:05PM
543003AtmosphericSalina 84321119NNEMay 8 2021 2:05PM
543003DepartureSalina109     May 8 2021 2:05PM
543003RoadwaySalina115     May 8 2021 2:05PM
543004AtmosphericConcordia 79491119SSEMay 8 2021 2:05PM
543004ApproachConcordia115     May 8 2021 2:05PM
543004DeckConcordia115     May 8 2021 2:05PM
543005AtmosphericPeabody 82461021SMay 8 2021 2:05PM
543005ApproachPeabody118     May 8 2021 2:05PM
543005DeckPeabody115     May 8 2021 2:05PM
560000AtmosphericEdson 70441824NNWMay 8 2021 2:05PM
560000RoadwayEdson100     May 8 2021 2:05PM
560000RoadwayEdson100     May 8 2021 2:05PM
560001AtmosphericOakley 75481315NWMay 8 2021 2:05PM
560001ApproachOakley113     May 8 2021 2:05PM
560001DeckOakley109     May 8 2021 2:05PM
560002AtmosphericAtwood 7052716NWMay 8 2021 2:05PM
560002ApproachAtwoodUnavailable     May 8 2021 2:05PM
560002DeckAtwoodUnavailable     May 8 2021 2:05PM
560003AtmosphericJennings 774548NNWMay 8 2021 2:05PM
560003ApproachJennings127     May 8 2021 2:05PM
560003DeckJennings124     May 8 2021 2:05PM
560003DeckJennings124     May 8 2021 2:05PM
560004AtmosphericWakeeney 8438712SSWMay 8 2021 2:05PM
560004ApproachWakeeney117     May 8 2021 2:05PM
560004DeckWakeeney117     May 8 2021 2:05PM
560005AtmosphericWalker 82401116SMay 8 2021 2:05PM
560005ApproachWalker109     May 8 2021 2:05PM
560005DeckWalker104     May 8 2021 2:05PM
560006AtmosphericBow Creek(Stockton) 8139612SEMay 8 2021 2:05PM
560006ApproachBow Creek(Stockton)127     May 8 2021 2:05PM
560006DeckBow Creek(Stockton)158     May 8 2021 2:05PM
560007AtmosphericLebanon 70521115SSEMay 8 2021 2:05PM
560007ApproachLebanonUnavailable     May 8 2021 2:05PM
560007DeckLebanon100     May 8 2021 2:05PM
560008AtmosphericWallace 90341224NWMay 8 2021 2:05PM
560008ApproachWallace106     May 8 2021 2:05PM
560008DeckWallace104     May 8 2021 2:05PM
572000AtmosphericGreat Bend 84411320SMay 8 2021 2:05PM
572000ApproachGreat BendUnavailable     May 8 2021 2:05PM
572000DeckGreat Bend109     May 8 2021 2:05PM
572001AtmosphericPratt 841139SSEMay 8 2021 2:05PM
572001ApproachPratt118     May 8 2021 2:05PM
572001DeckPratt113     May 8 2021 2:05PM
572002AtmosphericAnthony 8249715SMay 8 2021 2:05PM
572002ApproachAnthony122     May 8 2021 2:05PM
572002DeckAnthony118     May 8 2021 2:05PM
573000AtmosphericEureka 8149718SSEMay 8 2021 2:05PM
573000DeckEureka120     May 8 2021 2:05PM
573000DepartureEureka108     May 8 2021 2:05PM
573001AtmosphericGarnett 73591114SMay 8 2021 2:05PM
573001ApproachGarnettUnavailable     May 8 2021 2:05PM
573001DeckGarnettUnavailable     May 8 2021 2:05PM
573003AtmosphericChetopa 7951515SEMay 8 2021 2:05PM
573003DeckChetopa117     May 8 2021 2:05PM
573003DeckChetopa117     May 8 2021 2:05PM
573003DepartureChetopaUnavailable     May 8 2021 2:05PM
573004AtmosphericChanute 7758913SMay 8 2021 2:05PM
573004ApproachChanute111     May 8 2021 2:05PM
573004DeckChanute106     May 8 2021 2:05PM